TimeCET,TemperatureF,Dew PointF,Humidity,Sea Level PressureIn,VisibilityMPH,Wind Direction,Wind SpeedMPH,Gust SpeedMPH,PrecipitationIn,Events,Conditions,WindDirDegrees,DateUTC
12:00 AM,46,36,59,30.14,,South,8.9,,,,,180,2013-12-17 23:00:00
1:00 AM,47,37,59,30.13,,South,11.2,,,,,190,2013-12-18 00:00:00
2:00 AM,47,39,64,30.11,,SSW,11.2,,,,,200,2013-12-18 01:00:00
3:00 AM,48,40,66,30.11,,SSW,13.4,,,,,210,2013-12-18 02:00:00
4:00 AM,48,41,70,30.10,,SSW,13.4,,,,,200,2013-12-18 03:00:00
5:00 AM,48,42,71,30.09,,SSW,13.4,,,,,200,2013-12-18 04:00:00
6:00 AM,48,41,70,30.09,,SSW,13.4,,,,,200,2013-12-18 05:00:00
7:00 AM,47,41,73,30.09,,SSW,11.2,,,,,200,2013-12-18 06:00:00
8:00 AM,46,41,76,30.11,2,SSW,11.2,,,,Mostly Cloudy,210,2013-12-18 07:00:00
9:00 AM,46,41,76,30.12,2,SW,13.4,,,,Partly Cloudy,220,2013-12-18 08:00:00
10:00 AM,46,41,77,30.12,,SSW,13.4,,,,,210,2013-12-18 09:00:00
11:00 AM,46,41,76,30.12,,SSW,11.2,,,,,210,2013-12-18 10:00:00
12:00 PM,46,40,74,30.10,6,SSW,11.2,,,,Partly Cloudy,210,2013-12-18 11:00:00
1:00 PM,48,41,68,30.06,6,SSW,8.9,,,,,210,2013-12-18 12:00:00
2:00 PM,47,40,68,30.04,6,SSW,11.2,,,,Scattered Clouds,210,2013-12-18 13:00:00
3:00 PM,48,39,62,30.01,12,SSW,13.4,,,,Scattered Clouds,200,2013-12-18 14:00:00
4:00 PM,47,38,62,29.99,12,South,11.2,,,,Scattered Clouds,190,2013-12-18 15:00:00
5:00 PM,46,38,67,29.94,,South,13.4,,,,,170,2013-12-18 16:00:00
6:00 PM,46,40,74,29.92,2,South,15.7,,,,Scattered Clouds,180,2013-12-18 17:00:00
7:00 PM,47,42,78,29.88,,South,13.4,,,,,190,2013-12-18 18:00:00
8:00 PM,47,42,78,29.85,,South,13.4,,,,,190,2013-12-18 19:00:00
9:00 PM,48,42,74,29.80,,South,15.7,,,,,180,2013-12-18 20:00:00
10:00 PM,48,42,71,29.75,,South,15.7,,,,,180,2013-12-18 21:00:00
11:00 PM,49,42,67,29.70,,South,17.9,,,,,190,2013-12-18 22:00:00